Theta_e
322 325 326 325 325 326 325 324 319 315 316 322 323 328 329 330 331 328 326 325 325 321 320 320 322 323 324 324 324 324 324 325 325 326 328 328 326 324
323 325 325 324 324 325 324 324 322 320 316 322 324 327 329 329 331 327 325 324 322 321 321 319 319 319 320 320 320 321 322 322 321 322 324 325 326 325
326 324 324 324 323 324 324 324 322 322 318 322 326 326 326 327 326 324 325 324 323 320 320 319 317 316 317 317 317 317 318 319 319 320 320 321 321 321
325 325 324 324 323 324 324 322 322 323 322 320 324 325 324 324 323 322 326 327 323 322 318 317 315 314 313 312 312 313 313 313 314 316 317 317 318 319
325 325 324 324 323 324 323 323 324 324 324 322 322 323 324 324 323 323 322 321 320 322 317 316 315 314 313 312 311 310 309 308 307 308 311 313 314 315
325 326 325 324 324 323 323 323 324 323 323 322 322 318 319 320 321 318 316 314 314 316 316 314 314 314 312 311 312 313 309 306 305 305 305 305 305 307
325 326 325 323 322 322 324 323 323 322 322 319 317 316 315 314 315 313 313 311 312 313 311 310 309 309 308 309 312 312 308 306 305 304 304 303 301 302
324 324 323 320 318 314 316 316 321 322 319 317 314 314 313 313 310 309 310 309 308 311 310 310 308 309 308 307 307 305 303 303 302 302 302 301 300 300
324 324 325 324 322 323 313 313 314 311 314 317 314 313 312 313 311 309 309 309 310 312 311 310 310 308 309 306 303 303 302 301 301 301 301 300 298 297
324 325 324 323 323 322 321 320 318 318 315 318 316 315 314 315 314 314 313 311 312 308 310 309 303 304 303 302 303 302 301 300 300 300 300 299 298 297
323 323 325 323 307 307 318 314 309 308 302 302 304 298 300 306 311 317 313 312 306 304 304 305 301 301 301 302 303 302 301 301 300 300 299 299 297 296
318 317 309 317 300 300 314 309 306 304 303 302 300 299 300 301 304 311 312 304 299 301 305 302 301 300 298 300 299 299 299 301 299 298 298 298 297 295
314 311 310 300 298 298 304 310 307 305 302 306 307 307 306 306 306 304 303 303 302 302 305 302 299 298 295 294 296 297 297 296 295 295 296 296 296 295
311 311 305 296 296 296 302 299 297 302 307 307 307 306 305 302 301 303 303 303 303 303 301 301 298 295 292 291 292 294 293 292 292 291 291 294 294 294
311 306 296 294 294 296 294 294 297 307 307 306 305 302 301 300 300 301 301 300 299 300 301 298 297 294 293 291 290 289 289 290 292 289 291 290 290 290
300 297 296 296 296 296 296 299 303 308 307 306 301 299 299 298 297 297 298 296 296 293 295 295 294 290 289 289 288 286 287 286 289 288 288 289 291 289
296 295 295 296 294 294 292 295 302 306 304 301 299 297 297 297 296 296 295 294 292 290 289 290 291 290 290 289 285 285 285 285 286 287 288 286 289 290
297 295 294 295 297 295 295 297 299 303 301 299 296 296 296 297 296 295 294 293 293 291 289 288 287 286 285 286 291 284 284 284 286 288 286 285 286 290
300 296 297 295 296 297 299 301 301 302 298 298 297 295 296 295 296 296 297 295 293 289 288 287 286 284 280 280 284 292 285 285 286 284 284 284 285 287
299 298 297 296 293 295 297 301 301 297 297 296 296 296 295 296 297 296 296 292 291 289 288 287 287 285 282 281 283 285 288 284 284 283 283 287 287 290
300 301 301 300 297 297 298 300 301 300 299 298 296 295 296 296 294 295 293 289 288 289 288 286 287 285 286 285 280 280 282 288 286 282 283 281 280 280
303 304 303 302 302 301 300 300 299 297 298 298 296 297 296 297 294 293 292 290 289 289 286 286 286 284 283 280 274 276 279 280 284 287 288 286 279 280
306 308 305 304 304 302 301 300 300 300 299 297 297 296 296 294 293 293 291 290 289 288 286 283 282 281 280 280 275 272 276 275 273 276 278 287 287 287
Wind_Speed
5 6 5 4 5 8 6 5 4 4 4 4 3 7 7 5 8 5 5 10 10 10 8 7 7 8 7 7 6 6 6 5 7 9 10 12 13 13
5 9 7 5 7 6 6 7 4 5 4 3 4 7 8 5 7 5 4 7 7 7 6 7 6 6 7 6 6 7 7 7 8 10 12 12 12 12
8 8 9 8 7 7 7 7 7 6 8 4 3 7 8 8 5 4 2 4 2 3 5 5 6 7 7 7 7 7 8 9 10 11 11 11 13 12
8 10 10 8 9 8 7 8 7 5 8 9 4 2 8 6 5 4 2 2 2 4 5 6 8 7 7 9 9 9 10 10 10 9 11 12 13 14
7 8 10 10 9 8 8 8 7 7 7 6 4 3 3 4 3 3 3 1 2 5 7 7 7 8 11 11 9 9 7 8 9 11 13 13 14 14
6 8 8 9 11 11 8 8 8 8 8 7 5 3 3 3 3 3 1 1 2 1 3 5 5 7 6 6 6 8 8 9 10 12 12 13 13 14
6 6 6 8 11 8 7 8 10 7 6 6 3 2 2 3 3 2 2 1 2 1 2 2 2 3 2 4 5 5 7 9 10 10 10 11 11 10
7 8 9 12 11 13 12 10 8 8 6 4 3 3 3 4 3 3 3 2 0 1 2 2 2 3 3 3 6 5 3 1 3 5 7 11 12 12
7 8 8 7 9 8 7 8 6 1 3 4 5 4 4 5 6 4 3 2 3 1 2 1 3 4 3 4 8 12 13 14 14 16 14 12 12 13
7 7 9 8 6 6 5 4 1 3 5 4 5 4 3 7 6 5 6 4 3 2 1 3 3 1 1 3 13 17 15 15 14 14 16 16 14 12
5 6 8 7 8 9 5 3 1 1 6 5 8 11 6 9 8 6 4 4 2 1 3 3 2 3 4 4 5 10 12 12 15 14 16 18 18 13
3 5 5 6 10 10 6 6 6 3 5 5 4 7 6 7 5 2 5 4 4 3 4 5 4 4 4 2 3 5 6 13 14 17 17 17 15 7
4 3 3 8 10 10 7 6 5 7 5 6 5 5 6 6 4 5 5 5 5 4 3 4 3 2 2 3 3 4 5 6 5 6 13 14 15 13
5 3 4 8 10 10 8 7 10 8 5 5 5 4 4 4 4 6 9 10 8 7 3 6 4 2 2 3 3 4 4 3 4 6 5 8 10 10
4 7 10 9 11 7 8 10 8 5 5 5 6 4 3 5 6 8 10 13 12 10 7 5 6 3 4 2 1 4 6 4 7 5 8 8 6 5
8 6 5 5 5 7 6 3 4 5 6 7 5 4 3 3 3 3 8 7 8 5 7 7 7 5 3 3 4 2 2 3 4 4 4 6 8 5
8 4 3 3 4 3 3 4 4 5 5 4 4 4 4 4 3 3 4 3 5 3 3 4 3 5 5 6 2 1 3 2 3 4 6 5 7 7
4 4 4 5 5 6 5 4 2 4 5 5 4 5 6 5 5 4 5 5 6 3 3 0 2 3 5 4 4 2 2 3 3 7 5 6 6 8
4 5 6 7 6 7 6 5 5 4 5 6 6 5 6 7 9 7 6 9 4 3 2 2 3 3 3 3 4 7 5 5 6 5 4 4 7 9
3 5 6 7 6 7 6 5 5 6 6 6 6 6 7 9 9 9 9 6 4 3 3 3 4 3 3 1 1 3 11 5 5 6 6 6 6 14
5 5 6 8 7 8 7 6 7 9 8 8 6 8 7 8 6 7 6 6 6 3 4 3 1 4 2 3 4 4 5 12 11 4 6 6 6 4
8 8 6 5 6 7 7 7 7 7 7 7 8 7 6 8 9 9 3 5 4 5 4 2 3 3 4 2 1 2 4 5 12 14 13 12 4 8
9 9 7 7 6 7 7 8 9 9 9 8 8 8 9 10 9 4 4 5 7 5 3 3 2 4 2 3 3 2 3 3 2 4 5 14 17 15
Wind_Direction
99 99 110 89 113 143 138 140 128 129 123 110 108 112 124 111 127 123 129 146 165 161 170 181 186 194 191 198 206 222 233 236 241 243 235 239 243 250
99 105 105 94 97 111 118 111 82 115 114 68 72 125 124 120 129 118 121 149 140 159 172 192 208 211 217 217 232 237 238 236 240 246 249 248 251 253
98 100 101 109 105 104 108 113 113 117 116 94 75 123 129 132 115 102 137 96 112 204 199 207 226 228 233 235 244 252 250 244 247 248 254 254 252 257
110 114 113 111 102 110 117 115 102 101 119 121 114 120 111 108 109 120 106 146 205 228 229 226 233 241 256 252 244 250 254 256 261 271 264 263 262 260
115 113 120 116 111 110 110 117 111 107 111 119 110 78 83 118 116 123 163 162 219 223 226 225 233 242 248 253 263 275 304 287 284 286 276 271 273 268
91 109 117 120 123 121 118 112 119 115 112 108 112 92 96 81 87 121 134 34 298 264 236 248 249 252 276 287 284 281 274 277 278 277 290 289 283 282
94 91 105 106 111 118 129 125 127 125 125 116 98 102 105 108 165 162 147 120 272 344 355 305 289 353 343 329 310 313 319 317 304 293 283 278 276 289
111 107 111 110 101 98 93 97 127 138 135 131 128 135 162 147 141 123 134 135 80 323 106 6 15 31 26 54 18 356 310 348 357 345 349 356 350 341
119 120 117 115 115 118 124 119 117 133 84 150 152 175 164 173 143 144 139 131 175 289 147 99 23 59 30 41 64 51 35 26 18 10 1 352 344 342
101 106 120 132 135 136 133 116 224 242 214 189 182 172 157 170 166 158 166 141 88 38 41 108 16 113 101 339 39 38 21 14 3 356 357 353 344 338
126 115 148 155 153 133 130 166 210 79 58 68 101 84 111 178 156 122 149 110 107 34 349 126 356 31 35 8 27 32 17 9 5 15 15 12 7 352
97 121 176 158 157 167 165 156 137 142 101 107 102 86 96 78 97 95 146 143 124 84 333 75 26 34 16 336 25 32 5 10 16 15 12 7 2 357
154 167 184 183 170 183 170 168 174 147 131 119 104 83 63 65 65 70 86 115 97 72 320 91 58 47 69 322 331 20 24 13 11 360 4 347 345 359
168 166 159 167 177 169 165 168 147 120 117 97 98 99 96 84 64 71 70 74 69 112 71 107 104 108 113 4 346 356 357 40 16 0 340 331 339 348
152 154 136 142 128 128 148 149 142 111 117 120 124 113 118 138 118 98 83 77 63 43 45 62 111 112 77 90 48 344 349 336 5 344 339 338 337 335
95 91 99 118 96 114 114 123 122 141 145 133 123 114 117 100 104 67 98 88 89 62 26 43 74 93 117 94 91 309 285 351 324 310 305 334 332 312
111 101 110 107 129 131 112 125 135 145 134 123 135 133 113 113 89 84 111 91 97 112 45 9 28 89 83 127 114 355 313 309 286 319 356 325 308 313
108 148 181 178 170 169 166 162 161 144 140 133 130 137 136 129 114 79 63 92 119 108 112 13 348 35 25 4 85 31 319 279 327 346 328 322 303 325
152 174 181 182 188 182 174 167 166 180 146 145 150 141 130 126 128 129 127 129 120 109 126 169 78 86 72 48 298 63 18 0 348 331 304 300 303 310
184 169 189 188 176 180 180 175 154 147 157 153 148 146 141 143 144 149 148 145 144 143 126 62 68 70 114 204 322 319 14 12 342 324 325 315 284 285
207 203 194 191 187 178 177 168 162 169 166 159 152 150 148 144 137 139 126 128 138 112 104 101 132 116 97 70 29 334 332 332 346 328 318 321 330 329
206 208 204 186 174 169 161 159 156 155 160 160 153 145 141 140 136 126 105 141 128 115 110 102 54 69 62 86 120 328 313 319 331 338 350 14 358 342
208 206 190 171 172 157 159 165 166 168 164 153 151 146 141 135 119 70 120 141 120 120 131 126 84 59 74 80 73 261 296 300 297 323 314 344 341 348